Theta_e
344 352 358 354 353 353 354 354 355 355 356 357 357 357 358 359 359 357 357 357 359 358 356 356 356 355 356 356 354 353 351 350 351 351 350 348 348 347 345 345 344 342 345
347 351 358 353 352 353 353 354 354 356 358 358 357 358 358 359 358 358 357 357 358 356 355 354 353 353 352 352 352 353 353 351 349 348 350 349 348 349 348 348 346 343 344
347 352 349 356 353 354 353 353 354 356 358 358 358 358 358 358 357 357 356 356 355 354 352 352 351 351 351 351 351 351 351 350 352 350 346 344 346 349 348 347 348 347 346
347 348 347 354 354 353 351 354 356 355 357 357 358 357 357 356 356 355 355 353 352 351 350 350 349 350 350 350 350 349 350 352 352 353 350 346 344 350 347 349 348 348 347
345 348 346 353 353 352 352 353 354 355 357 356 356 357 357 356 355 355 354 352 351 349 349 349 349 349 350 349 349 351 352 352 353 347 348 348 347 347 348 348 349 347 347
343 345 349 352 351 352 351 352 353 354 355 356 356 356 356 355 354 353 352 351 350 350 350 350 349 350 350 350 352 353 352 351 351 346 346 347 349 348 350 349 347 347 347
342 344 347 351 351 351 352 352 353 354 357 356 356 356 355 354 353 352 351 351 352 352 352 351 353 355 353 353 353 353 353 351 347 342 341 345 350 350 352 351 350 348 346
344 344 346 350 351 352 352 353 354 355 354 355 355 354 354 353 352 352 353 353 353 353 353 353 355 355 354 354 354 354 354 352 349 348 342 346 342 351 353 354 353 352 350
345 344 344 347 350 353 354 354 353 353 355 355 354 354 353 353 353 353 353 354 354 355 356 356 356 356 355 355 354 354 354 352 350 348 344 345 346 350 354 356 353 352 350
340 340 341 343 345 346 348 353 353 352 352 353 353 353 353 353 353 354 355 354 354 355 357 357 357 357 356 356 356 355 355 353 350 349 345 343 346 350 354 355 355 356 352
331 327 333 338 339 342 345 348 352 352 352 352 352 352 353 347 345 345 347 350 352 356 358 358 359 358 358 358 357 356 354 350 350 348 342 342 348 350 353 355 355 355 353
320 321 321 331 333 337 344 344 343 346 345 345 345 344 343 342 343 347 347 348 347 349 350 351 351 351 348 348 348 347 344 342 348 348 347 348 351 352 353 357 357 357 355
316 316 317 319 323 331 337 338 339 342 341 342 342 340 340 340 340 341 340 339 340 343 340 340 339 339 337 338 338 341 343 343 344 346 347 351 355 355 356 357 357 357 355
314 314 316 317 320 323 332 337 335 334 335 334 330 331 337 338 338 337 337 338 339 339 337 338 338 339 339 339 337 340 340 343 346 346 349 352 354 357 357 359 359 358 356
311 312 314 316 318 322 328 330 326 324 322 323 324 326 330 334 334 331 329 329 329 329 330 332 332 333 335 337 341 339 340 340 341 343 346 349 352 354 357 360 358 355 356
311 311 313 314 316 320 321 320 319 318 318 319 319 319 321 323 324 321 321 321 322 323 323 326 326 327 329 334 330 332 335 339 343 343 344 345 348 351 355 358 357 355 355
313 311 312 315 314 315 317 317 316 316 317 317 318 319 319 318 317 317 316 317 318 319 320 321 321 323 327 324 323 325 330 336 340 340 345 346 346 350 354 357 356 352 354
310 310 311 313 313 314 314 314 314 314 315 315 316 316 317 317 317 315 314 315 316 317 315 315 317 316 322 317 317 320 325 334 332 337 344 346 346 349 353 355 353 345 342
309 309 309 310 311 313 313 312 311 312 313 312 312 312 312 313 314 312 311 312 313 311 311 310 313 313 316 312 312 318 325 328 329 341 343 345 346 346 348 352 350 345 347
308 308 308 309 310 311 312 311 310 310 311 310 310 309 311 310 310 309 308 308 308 306 305 306 307 310 312 308 310 316 319 322 335 335 334 338 343 343 343 345 345 344 346
312 309 314 310 309 311 310 310 308 308 309 308 307 308 307 308 310 307 305 304 304 303 302 303 303 305 305 306 309 311 319 321 319 323 329 324 324 324 326 331 338 340 340
307 307 309 310 312 311 308 308 308 308 306 306 304 305 306 306 305 305 306 302 301 300 300 300 300 301 301 303 300 308 307 312 312 316 319 318 313 313 315 316 316 318 323
306 306 306 306 307 309 309 309 308 310 308 305 303 303 304 304 303 303 302 300 299 299 298 298 298 297 295 299 300 300 299 299 301 313 315 310 305 304 310 309 312 317 321
304 305 304 304 305 305 305 304 303 301 299 299 299 300 301 302 302 302 301 300 299 298 297 298 297 296 296 293 297 298 301 299 296 297 307 307 301 301 303 305 306 308 312
303 302 302 302 302 302 302 301 300 298 298 299 299 298 298 299 301 301 300 299 298 297 297 297 296 295 295 294 293 294 296 299 297 294 292 296 297 300 302 300 302 305 309
302 302 302 302 301 302 301 301 299 298 298 297 297 297 297 297 298 299 299 298 298 298 297 296 295 294 293 293 294 294 293 293 292 292 291 292 292 296 298 300 301 304 305
Wind_Speed
4 5 15 14 13 14 14 14 15 15 15 15 16 16 15 13 13 14 13 12 10 12 12 11 11 10 10 10 10 9 8 7 7 7 7 7 8 9 9 8 9 7 8
7 6 14 14 13 14 13 14 13 13 13 14 14 15 13 12 13 12 11 10 9 11 9 9 9 9 9 7 7 5 4 4 4 5 6 5 5 6 7 8 8 7 8
8 8 13 13 14 13 12 14 13 12 12 12 12 13 13 12 11 10 9 7 8 9 7 8 8 7 6 6 6 5 4 2 1 2 2 2 2 5 5 6 7 8 7
7 7 12 14 13 13 13 11 12 12 12 12 12 12 11 10 9 8 7 6 6 7 5 7 6 5 5 4 5 4 5 4 2 3 2 3 3 6 6 6 6 6 7
6 6 11 14 12 14 13 11 11 11 11 11 12 11 10 9 7 6 5 4 4 4 4 5 5 4 4 4 5 6 6 5 3 2 2 3 3 6 7 7 6 6 6
6 5 12 14 14 14 14 13 11 11 11 11 11 11 9 7 5 4 2 3 4 5 5 5 3 5 4 4 5 6 7 4 2 1 1 4 6 6 9 9 8 7 7
6 4 10 13 12 13 13 13 11 9 9 9 8 8 6 5 3 0 2 5 6 8 8 7 7 6 7 5 6 7 7 6 3 2 4 4 7 10 10 10 8 8 8
7 4 8 12 12 11 12 11 9 8 6 5 6 5 4 2 1 2 4 7 9 10 10 10 9 8 9 8 7 9 8 8 5 4 4 3 4 10 12 10 10 10 9
6 4 3 6 8 9 8 8 8 6 5 5 3 2 2 3 3 5 6 8 10 10 11 11 9 10 8 12 8 8 9 9 6 3 4 3 7 8 12 12 12 11 9
6 4 3 4 3 3 0 6 5 5 4 2 3 3 4 5 6 7 9 9 12 12 13 13 12 10 10 11 12 9 10 10 6 5 3 4 9 10 12 14 14 12 11
7 6 4 2 2 1 1 2 3 5 4 4 4 5 5 3 5 8 10 14 14 14 14 13 12 12 11 8 12 12 10 4 5 3 3 7 10 10 11 12 12 12 13
5 5 5 5 4 2 2 2 1 2 2 2 3 4 3 4 4 7 9 13 12 11 10 10 10 9 9 3 3 9 3 4 4 5 4 10 10 11 12 12 11 14 14
4 5 6 6 5 4 1 1 1 1 0 2 3 3 3 3 3 3 3 4 5 11 5 8 7 5 6 4 4 2 5 5 3 4 6 8 10 12 13 13 12 12 14
7 7 7 7 6 5 3 3 4 3 3 3 4 5 3 2 3 4 4 6 6 6 8 7 5 7 8 7 7 6 5 4 4 4 6 10 9 12 14 13 12 12 12
8 8 8 7 6 5 6 5 6 6 5 5 5 6 5 5 6 5 6 6 6 6 7 7 7 7 8 9 8 9 9 8 7 5 4 13 11 10 11 14 9 7 8
5 6 6 8 7 6 7 8 6 5 5 6 6 7 8 5 5 5 5 6 6 6 6 6 6 7 7 8 9 8 8 7 7 7 5 6 10 11 8 10 8 7 9
3 4 6 6 7 7 6 7 6 6 7 6 6 9 9 8 7 5 5 5 5 5 7 6 6 6 6 7 8 8 6 7 7 7 6 5 4 4 8 7 8 7 10
4 6 5 6 6 7 7 6 6 6 7 7 7 7 10 9 8 6 5 6 6 6 6 6 7 6 6 7 8 7 7 7 7 8 6 3 2 2 2 10 13 12 12
6 6 8 7 7 7 7 7 8 9 8 8 7 7 10 10 9 6 6 6 7 6 7 7 6 6 6 8 8 7 7 7 7 5 7 7 7 4 3 10 13 14 13
6 6 6 5 6 6 4 6 7 8 8 7 7 7 9 8 10 7 7 8 7 7 8 8 7 7 6 9 8 6 7 5 4 6 8 9 9 8 6 6 6 7 12
5 6 5 6 4 3 3 3 4 6 7 7 7 10 10 9 10 8 7 8 8 9 9 10 6 6 7 10 4 5 4 6 6 7 7 8 12 12 12 12 8 6 7
4 6 6 5 5 4 3 2 3 3 6 6 6 8 9 10 10 9 8 8 9 7 10 11 10 4 5 9 5 3 5 5 7 7 7 8 11 9 11 12 11 10 10
5 6 6 6 6 5 5 5 4 4 3 5 6 6 7 9 9 9 9 8 8 7 8 9 10 11 7 5 11 6 4 4 7 4 5 7 10 9 8 11 11 11 10
5 6 6 6 6 6 5 7 8 6 7 3 4 4 6 8 8 9 9 8 7 6 8 9 9 9 7 9 3 7 5 1 4 6 4 7 11 13 12 9 11 11 11
6 6 6 6 6 6 7 8 8 9 6 3 3 6 6 6 6 8 7 7 7 6 7 9 9 9 7 7 6 4 3 2 7 3 6 5 9 8 8 12 10 9 10
6 6 5 7 5 5 7 8 9 9 6 5 4 4 4 3 4 6 7 6 5 5 6 6 7 9 8 6 5 5 4 3 6 3 5 10 12 4 12 8 10 8 9
Wind_Direction
195 164 137 140 125 114 114 115 110 112 113 113 112 111 109 106 104 102 98 92 89 88 86 87 86 85 80 79 80 86 92 99 103 103 99 112 105 118 114 110 108 112 112
140 152 139 140 128 122 119 120 113 111 113 115 113 109 106 104 104 99 96 92 92 90 88 83 77 73 69 70 74 73 86 92 96 106 100 93 115 110 117 112 111 112 113
139 152 143 135 130 124 129 124 121 116 117 117 114 109 107 106 103 98 93 92 87 83 78 72 70 63 61 51 45 29 16 14 16 31 84 59 132 135 129 129 132 125 125
129 135 147 138 135 134 137 132 130 129 127 123 119 115 111 106 101 94 85 78 70 66 50 56 45 49 44 34 23 353 344 342 287 209 174 177 196 171 155 150 146 135 138
108 128 150 140 146 142 142 142 136 140 136 131 125 119 115 108 97 84 72 49 32 28 16 41 19 359 6 1 348 333 326 335 301 15 241 237 220 189 174 167 161 160 162
113 122 148 149 150 149 152 154 150 148 148 144 140 134 129 118 109 93 49 352 345 336 338 350 350 317 324 323 318 310 307 330 142 323 269 225 217 218 191 181 180 183 181
116 154 149 154 154 155 157 161 160 156 151 151 144 137 137 130 128 106 323 313 316 318 321 326 318 312 309 305 296 290 294 293 221 279 300 252 215 212 203 192 195 200 198
127 111 152 157 162 163 166 168 170 164 159 152 152 150 155 161 222 282 303 308 311 312 312 311 307 307 303 297 287 285 284 281 266 246 263 230 229 207 212 204 203 210 213
86 89 59 147 169 171 171 177 181 180 175 158 170 183 212 261 279 295 298 296 296 299 300 297 295 296 296 295 288 273 273 272 269 254 247 230 231 212 212 209 210 213 218
75 67 53 49 38 44 352 192 196 207 205 216 233 252 277 287 299 302 296 298 302 295 290 288 290 289 290 286 290 281 272 269 260 240 256 239 230 223 221 221 212 218 214
63 34 18 55 50 21 284 282 217 241 237 257 288 314 322 327 329 323 319 318 315 305 301 301 302 305 298 290 294 300 296 282 270 246 231 248 242 234 228 220 215 211 214
42 36 27 41 0 270 256 199 249 252 319 342 344 344 334 335 325 333 339 344 352 1 359 349 344 339 335 325 298 304 302 299 286 282 257 240 233 228 227 229 221 210 215
55 42 23 27 24 30 261 284 223 236 302 14 1 344 320 331 335 355 7 17 7 13 14 6 6 10 3 350 350 335 320 318 293 281 272 250 227 233 225 224 222 221 213
43 32 28 24 25 31 45 57 47 51 57 58 50 25 36 53 43 46 46 28 18 5 7 4 358 354 0 5 7 1 5 331 313 300 288 280 240 232 231 225 217 219 226
38 15 19 29 28 24 48 50 55 53 54 47 38 36 38 49 54 45 39 34 23 5 7 5 353 354 353 355 2 2 354 350 341 324 303 296 282 263 240 226 219 229 232
56 28 5 37 27 36 55 56 55 54 48 57 52 38 41 50 60 51 44 35 23 6 358 3 358 349 347 350 347 349 337 335 331 329 320 308 300 283 261 242 219 214 223
50 66 25 45 40 48 57 66 60 51 51 48 50 47 47 46 49 53 49 38 19 6 1 358 2 354 351 349 338 330 322 323 319 316 316 318 321 292 241 201 185 152 227
64 46 61 62 65 68 64 63 64 52 55 45 46 42 43 43 38 44 43 32 13 20 12 1 2 353 1 348 332 318 312 313 316 317 321 339 341 220 203 174 165 196 227
55 45 35 29 48 70 73 78 70 61 56 48 41 39 35 32 31 36 34 23 19 20 22 4 354 2 360 345 320 309 308 311 326 355 19 22 24 22 348 193 188 205 214
65 62 59 51 47 61 64 73 72 67 62 52 49 45 36 38 31 35 34 32 29 28 22 8 358 2 16 336 308 313 300 317 25 21 13 28 32 33 19 14 350 336 319
74 81 78 82 57 76 53 68 65 79 77 60 49 44 43 40 42 39 38 33 28 37 27 15 349 6 14 353 335 344 344 65 41 9 31 21 25 16 18 14 357 338 323
68 55 57 67 72 89 97 92 102 104 78 75 64 49 47 52 39 52 38 35 31 39 34 27 23 359 14 19 0 321 9 341 358 10 28 24 20 5 360 354 347 346 340
80 64 60 54 61 63 88 107 99 95 70 59 46 54 31 43 50 49 49 48 40 44 44 38 30 33 20 11 36 34 5 1 327 337 15 33 10 356 348 341 341 340 335
115 85 71 63 68 62 64 82 89 92 93 71 75 63 52 40 45 51 50 50 48 49 49 40 33 35 28 28 2 22 49 349 352 318 330 6 357 336 337 336 331 321 318
130 117 109 95 86 89 90 92 93 90 90 95 78 72 54 43 40 52 48 47 45 45 50 50 42 38 38 46 37 354 5 35 46 321 302 327 326 325 330 322 316 318 326
128 121 113 102 88 81 89 90 96 99 96 85 70 67 55 44 36 37 42 42 39 40 47 48 45 45 41 47 42 40 33 9 358 355 311 327 321 325 310 313 318 335 340